Time,TemperatureF,DewpointF,PressureIn,WindDirection,WindDirectionDegrees,WindSpeedMPH,WindSpeedGustMPH,Humidity,HourlyPrecipIn,Conditions,Clouds,dailyrainin,SoftwareType,DateUTC
2013-04-01 00:00:00,42.6,39.6,29.67,WNW,292,10.0,14.0,89,0.00,RA,RA,0.00,WeatherDisplay:10.37,2013-04-01 04:00:00,
2013-04-01 00:02:00,42.6,39.3,29.67,West,270,2.8,11.5,88,0.00,RA,,0.00,WeatherDisplay:10.37,2013-04-01 04:02:00,
2013-04-01 00:04:00,42.6,39.3,29.67,West,270,8.1,8.1,88,0.00,RA,,0.00,WeatherDisplay:10.37,2013-04-01 04:04:00,
2013-04-01 00:09:00,42.4,39.4,29.66,West,270,9.9,9.9,89,0.00,RA,,0.00,WeatherDisplay:10.37,2013-04-01 04:09:00,
2013-04-01 00:13:00,42.4,39.4,29.66,WSW,248,6.4,8.1,89,0.00,CLR,,0.00,WeatherDisplay:10.37,2013-04-01 04:13:00,
2013-04-01 00:19:00,42.4,39.1,29.66,West,270,4.0,8.1,88,0.00,CLR,,0.00,WeatherDisplay:10.37,2013-04-01 04:19:00,
2013-04-01 00:24:00,42.4,39.1,29.66,WNW,292,6.1,6.9,88,0.00,CLR,,0.00,WeatherDisplay:10.37,2013-04-01 04:24:00,
2013-04-01 00:29:00,42.4,39.1,29.66,WSW,248,8.7,8.7,88,0.00,CLR,,0.00,WeatherDisplay:10.37,2013-04-01 04:29:00,
2013-04-01 00:34:00,42.6,39.3,29.66,West,270,6.1,6.1,88,0.00,CLR,,0.00,WeatherDisplay:10.37,2013-04-01 04:34:00,
2013-04-01 00:39:00,42.6,39.3,29.66,NW,315,3.7,6.9,88,0.00,CLR,,0.00,WeatherDisplay:10.37,2013-04-01 04:39:00,
2013-04-01 00:44:00,42.6,39.3,29.66,West,270,4.6,4.6,88,0.00,CLR,,0.00,WeatherDisplay:10.37,2013-04-01 04:44:00,
2013-04-01 00:49:00,42.4,39.1,29.66,NNW,338,10.2,10.4,88,0.00,CLR,,0.00,WeatherDisplay:10.37,2013-04-01 04:49:00,
2013-04-01 00:54:00,42.6,39.3,29.65,West,270,4.0,4.6,88,0.00,CLR,,0.00,WeatherDisplay:10.37,2013-04-01 04:54:00,
2013-04-01 00:59:00,42.8,39.2,29.65,West,270,6.1,6.1,87,0.00,CLR,,0.00,WeatherDisplay:10.37,2013-04-01 04:59:00,
2013-04-01 01:04:00,42.6,39.0,29.65,WSW,248,6.1,8.1,87,0.00,CLR,,0.00,WeatherDisplay:10.37,2013-04-01 05:04:00,
2013-04-01 01:09:00,42.4,38.8,29.65,NNW,338,1.5,4.6,87,0.00,CLR,,0.00,WeatherDisplay:10.37,2013-04-01 05:09:00,
2013-04-01 01:14:00,42.3,38.7,29.65,WSW,248,4.0,4.6,87,0.00,CLR,,0.00,WeatherDisplay:10.37,2013-04-01 05:14:00,
2013-04-01 01:19:00,42.1,38.8,29.65,West,270,4.3,5.8,88,0.00,CLR,,0.00,WeatherDisplay:10.37,2013-04-01 05:19:00,
2013-04-01 01:24:00,42.1,38.8,29.64,West,270,5.2,6.9,88,0.00,CLR,,0.00,WeatherDisplay:10.37,2013-04-01 05:24:00,
2013-04-01 01:29:00,42.3,39.0,29.64,West,270,3.1,9.2,88,0.00,CLR,,0.00,WeatherDisplay:10.37,2013-04-01 05:29:00,
2013-04-01 01:34:00,42.3,38.7,29.64,West,270,2.5,4.6,87,0.00,CLR,,0.00,WeatherDisplay:10.37,2013-04-01 05:34:00,
2013-04-01 01:39:00,42.3,38.7,29.64,WSW,248,1.5,8.1,87,0.00,CLR,,0.00,WeatherDisplay:10.37,2013-04-01 05:39:00,
2013-04-01 01:44:00,42.3,38.7,29.64,West,270,3.1,5.8,87,0.00,CLR,,0.00,WeatherDisplay:10.37,2013-04-01 05:44:00,
2013-04-01 01:49:00,42.3,38.7,29.64,WSW,248,1.8,6.9,87,0.00,CLR,,0.00,WeatherDisplay:10.37,2013-04-01 05:49:00,
2013-04-01 01:54:00,42.3,38.7,29.64,WSW,248,3.1,3.5,87,0.00,CLR,,0.00,WeatherDisplay:10.37,2013-04-01 05:54:00,
2013-04-01 01:59:00,42.3,38.7,29.64,WSW,248,1.5,2.3,87,0.00,CLR,,0.00,WeatherDisplay:10.37,2013-04-01 05:59:00,
2013-04-01 02:04:00,42.3,38.7,29.64,SSW,202,1.5,5.8,87,0.00,CLR,,0.00,WeatherDisplay:10.37,2013-04-01 06:04:00,
2013-04-01 02:09:00,42.3,38.7,29.64,West,270,2.1,2.3,87,0.00,CLR,,0.00,WeatherDisplay:10.37,2013-04-01 06:09:00,
2013-04-01 02:14:00,42.4,38.8,29.64,WSW,248,4.3,8.1,87,0.00,CLR,,0.00,WeatherDisplay:10.37,2013-04-01 06:14:00,
2013-04-01 02:19:00,42.4,38.8,29.64,West,270,1.5,3.5,87,0.00,CLR,,0.00,WeatherDisplay:10.37,2013-04-01 06:19:00,
2013-04-01 02:24:00,42.3,38.7,29.64,West,270,1.8,4.6,87,0.00,CLR,,0.00,WeatherDisplay:10.37,2013-04-01 06:24:00,
2013-04-01 02:29:00,42.3,38.7,29.64,West,270,2.1,5.8,87,0.00,CLR,,0.00,WeatherDisplay:10.37,2013-04-01 06:29:00,
2013-04-01 02:34:00,42.3,38.7,29.64,WSW,248,2.4,4.6,87,0.00,CLR,,0.00,WeatherDisplay:10.37,2013-04-01 06:34:00,
2013-04-01 02:39:00,42.3,38.7,29.64,SSW,202,3.1,4.6,87,0.00,CLR,,0.00,WeatherDisplay:10.37,2013-04-01 06:39:00,
2013-04-01 02:44:00,42.3,38.7,29.64,SW,225,0.9,3.5,87,0.00,CLR,,0.00,WeatherDisplay:10.37,2013-04-01 06:44:00,
2013-04-01 02:49:00,42.3,38.7,29.64,NNW,338,3.7,3.7,87,0.00,CLR,,0.00,WeatherDisplay:10.37,2013-04-01 06:49:00,
2013-04-01 02:54:00,42.3,38.7,29.63,WSW,248,4.9,4.9,87,0.00,CLR,,0.00,WeatherDisplay:10.37,2013-04-01 06:54:00,
2013-04-01 02:59:00,42.3,38.7,29.63,SSW,202,6.4,6.9,87,0.00,CLR,,0.00,WeatherDisplay:10.37,2013-04-01 06:59:00,
2013-04-01 03:04:00,42.4,38.5,29.63,SSE,158,0.3,1.1,86,0.00,CLR,,0.00,WeatherDisplay:10.37,2013-04-01 07:04:00,
2013-04-01 03:09:00,42.4,38.5,29.63,West,270,1.8,8.1,86,0.00,CLR,,0.00,WeatherDisplay:10.37,2013-04-01 07:09:00,
2013-04-01 03:14:00,42.6,38.7,29.63,WSW,248,1.2,2.3,86,0.00,CLR,,0.00,WeatherDisplay:10.37,2013-04-01 07:14:00,
2013-04-01 03:19:00,42.4,38.5,29.63,SSW,202,2.5,3.5,86,0.00,CLR,,0.00,WeatherDisplay:10.37,2013-04-01 07:19:00,
2013-04-01 03:25:00,42.3,38.4,29.63,SW,225,2.1,4.6,86,0.00,CLR,,0.00,WeatherDisplay:10.37,2013-04-01 07:25:00,
2013-04-01 03:30:00,42.3,38.4,29.62,SSW,202,0.0,1.1,86,0.00,CLR,,0.00,WeatherDisplay:10.37,2013-04-01 07:30:00,
2013-04-01 03:35:00,42.1,38.2,29.62,SE,135,3.4,3.5,86,0.00,CLR,,0.00,WeatherDisplay:10.37,2013-04-01 07:35:00,
2013-04-01 03:40:00,42.1,38.2,29.62,SW,225,1.8,2.3,86,0.00,CLR,,0.00,WeatherDisplay:10.37,2013-04-01 07:40:00,
2013-04-01 03:45:00,42.1,38.2,29.62,SW,225,0.6,3.5,86,0.00,CLR,,0.00,WeatherDisplay:10.37,2013-04-01 07:45:00,
2013-04-01 03:50:00,42.1,38.5,29.62,South,180,2.4,2.4,87,0.00,CLR,,0.00,WeatherDisplay:10.37,2013-04-01 07:50:00,
2013-04-01 03:55:00,41.9,38.0,29.62,SSW,202,0.6,1.1,86,0.00,CLR,,0.00,WeatherDisplay:10.37,2013-04-01 07:55:00,
2013-04-01 04:00:00,41.7,38.1,29.62,SW,225,1.8,2.3,87,0.00,CLR,,0.00,WeatherDisplay:10.37,2013-04-01 08:00:00,
2013-04-01 04:05:00,41.5,38.0,29.62,SSW,202,0.6,3.5,87,0.00,CLR,,0.00,WeatherDisplay:10.37,2013-04-01 08:05:00,
2013-04-01 04:10:00,41.4,37.8,29.62,South,180,1.5,2.3,87,0.00,CLR,,0.00,WeatherDisplay:10.37,2013-04-01 08:10:00,
2013-04-01 04:15:00,41.4,37.8,29.61,SSW,202,2.1,2.1,87,0.00,CLR,,0.00,WeatherDisplay:10.37,2013-04-01 08:15:00,
2013-04-01 04:20:00,41.4,37.8,29.61,SW,225,0.9,3.5,87,0.00,CLR,,0.00,WeatherDisplay:10.37,2013-04-01 08:20:00,
2013-04-01 04:25:00,41.2,37.6,29.61,SSW,202,1.2,1.2,87,0.00,CLR,,0.00,WeatherDisplay:10.37,2013-04-01 08:25:00,
2013-04-01 04:30:00,41.2,37.6,29.61,SSW,202,2.4,2.4,87,0.00,CLR,,0.00,WeatherDisplay:10.37,2013-04-01 08:30:00,
2013-04-01 04:35:00,41.2,37.6,29.61,SSE,158,1.2,2.3,87,0.00,CLR,,0.00,WeatherDisplay:10.37,2013-04-01 08:35:00,
2013-04-01 04:40:00,41.2,37.6,29.61,SSW,202,0.6,2.3,87,0.00,CLR,,0.00,WeatherDisplay:10.37,2013-04-01 08:40:00,
2013-04-01 04:45:00,41.2,37.6,29.61,SSW,202,1.5,2.3,87,0.00,CLR,,0.00,WeatherDisplay:10.37,2013-04-01 08:45:00,
2013-04-01 04:50:00,41.2,37.9,29.61,SSW,202,1.5,1.5,88,0.00,CLR,,0.00,WeatherDisplay:10.37,2013-04-01 08:50:00,
2013-04-01 04:55:00,41.2,37.9,29.61,SSE,158,1.5,1.5,88,0.00,CLR,,0.00,WeatherDisplay:10.37,2013-04-01 08:55:00,
2013-04-01 05:00:00,41.2,37.9,29.61,SW,225,2.8,4.6,88,0.00,CLR,,0.00,WeatherDisplay:10.37,2013-04-01 09:00:00,
2013-04-01 05:05:00,41.2,37.9,29.61,SSW,202,2.4,3.5,88,0.00,CLR,,0.00,WeatherDisplay:10.37,2013-04-01 09:05:00,
2013-04-01 05:10:00,41.2,37.9,29.62,SSW,202,2.8,2.8,88,0.00,CLR,,0.00,WeatherDisplay:10.37,2013-04-01 09:10:00,
2013-04-01 05:15:00,41.4,38.1,29.62,SSW,202,1.5,2.3,88,0.00,CLR,,0.00,WeatherDisplay:10.37,2013-04-01 09:15:00,
2013-04-01 05:20:00,41.2,37.9,29.62,SSW,202,0.9,2.3,88,0.00,CLR,,0.00,WeatherDisplay:10.37,2013-04-01 09:20:00,
2013-04-01 05:25:00,41.2,37.9,29.63,SSW,202,0.6,2.3,88,0.00,CLR,,0.00,WeatherDisplay:10.37,2013-04-01 09:25:00,
2013-04-01 05:30:00,41.2,37.9,29.63,SSW,202,2.8,6.9,88,0.00,CLR,,0.00,WeatherDisplay:10.37,2013-04-01 09:30:00,
2013-04-01 05:35:00,41.2,37.9,29.63,WSW,248,1.2,1.2,88,0.00,CLR,,0.00,WeatherDisplay:10.37,2013-04-01 09:35:00,
2013-04-01 05:40:00,41.2,37.9,29.64,SSW,202,1.2,1.2,88,0.00,CLR,,0.00,WeatherDisplay:10.37,2013-04-01 09:40:00,
2013-04-01 05:45:00,41.4,38.1,29.64,SSW,202,1.8,2.3,88,0.00,CLR,,0.00,WeatherDisplay:10.37,2013-04-01 09:45:00,
2013-04-01 05:50:00,41.2,37.9,29.64,WSW,248,0.6,1.1,88,0.00,CLR,,0.00,WeatherDisplay:10.37,2013-04-01 09:50:00,
2013-04-01 05:55:00,41.7,39.0,29.64,SW,225,5.2,5.8,90,0.00,CLR,,0.00,WeatherDisplay:10.37,2013-04-01 09:55:00,
2013-04-01 06:00:00,42.1,39.1,29.64,West,270,3.4,4.6,89,0.00,CLR,,0.00,WeatherDisplay:10.37,2013-04-01 10:00:00,
2013-04-01 06:05:00,42.6,39.0,29.65,WSW,248,4.3,6.9,87,0.00,CLR,,0.00,WeatherDisplay:10.37,2013-04-01 10:05:00,
2013-04-01 06:10:00,42.8,39.2,29.65,WSW,248,7.6,8.1,87,0.00,CLR,,0.00,WeatherDisplay:10.37,2013-04-01 10:10:00,
2013-04-01 06:15:00,43.0,39.1,29.65,West,270,4.6,6.9,86,0.00,CLR,,0.00,WeatherDisplay:10.37,2013-04-01 10:15:00,
2013-04-01 06:20:00,42.8,38.9,29.65,WSW,248,4.3,8.1,86,0.00,CLR,,0.00,WeatherDisplay:10.37,2013-04-01 10:20:00,
2013-04-01 06:25:00,42.8,38.9,29.66,West,270,8.7,8.7,86,0.00,CLR,,0.00,WeatherDisplay:10.37,2013-04-01 10:25:00,
2013-04-01 06:30:00,43.0,39.1,29.66,WSW,248,2.4,9.2,86,0.00,CLR,,0.00,WeatherDisplay:10.37,2013-04-01 10:30:00,
2013-04-01 06:35:00,42.8,38.9,29.66,West,270,4.3,11.5,86,0.00,CLR,,0.00,WeatherDisplay:10.37,2013-04-01 10:35:00,
2013-04-01 06:40:00,42.8,38.6,29.66,WSW,248,7.8,8.1,85,0.00,CLR,,0.00,WeatherDisplay:10.37,2013-04-01 10:40:00,
2013-04-01 06:45:00,42.8,38.6,29.67,WSW,248,4.3,8.1,85,0.00,CLR,,0.00,WeatherDisplay:10.37,2013-04-01 10:45:00,
2013-04-01 06:50:00,42.8,38.6,29.67,WSW,248,3.4,4.6,85,0.00,CLR,,0.00,WeatherDisplay:10.37,2013-04-01 10:50:00,
2013-04-01 06:55:00,42.8,38.6,29.67,West,270,2.8,8.1,85,0.00,CLR,,0.00,WeatherDisplay:10.37,2013-04-01 10:55:00,
2013-04-01 07:00:00,42.8,38.6,29.67,WSW,248,7.0,16.1,85,0.00,CLR,,0.00,WeatherDisplay:10.37,2013-04-01 11:00:00,
2013-04-01 07:05:00,42.6,38.4,29.67,WSW,248,6.1,9.2,85,0.00,CLR,,0.00,WeatherDisplay:10.37,2013-04-01 11:05:00,
2013-04-01 07:10:00,42.6,38.4,29.68,West,270,8.4,8.4,85,0.00,CLR,,0.00,WeatherDisplay:10.37,2013-04-01 11:10:00,
2013-04-01 07:15:00,42.6,38.1,29.68,NW,315,5.2,8.1,84,0.00,CLR,,0.00,WeatherDisplay:10.37,2013-04-01 11:15:00,
2013-04-01 07:20:00,42.6,38.1,29.68,WSW,248,2.5,6.9,84,0.00,CLR,,0.00,WeatherDisplay:10.37,2013-04-01 11:20:00,
2013-04-01 07:25:00,42.4,37.9,29.68,West,270,9.6,9.6,84,0.00,CLR,,0.00,WeatherDisplay:10.37,2013-04-01 11:25:00,
2013-04-01 07:30:00,42.4,37.9,29.68,West,270,6.7,16.1,84,0.00,CLR,,0.00,WeatherDisplay:10.37,2013-04-01 11:30:00,
2013-04-01 07:35:00,42.3,37.8,29.67,NW,315,1.5,4.6,84,0.00,CLR,,0.00,WeatherDisplay:10.37,2013-04-01 11:35:00,
2013-04-01 07:40:00,42.3,38.1,29.67,SW,225,4.6,4.6,85,0.00,CLR,,0.00,WeatherDisplay:10.37,2013-04-01 11:40:00,
2013-04-01 07:45:00,42.1,37.9,29.67,WSW,248,6.1,6.1,85,0.00,CLR,,0.00,WeatherDisplay:10.37,2013-04-01 11:45:00,
2013-04-01 07:50:00,42.3,37.8,29.67,NW,315,5.2,5.8,84,0.00,CLR,,0.00,WeatherDisplay:10.37,2013-04-01 11:50:00,
2013-04-01 07:55:00,42.1,37.3,29.67,WNW,292,9.3,9.3,83,0.00,CLR,,0.00,WeatherDisplay:10.37,2013-04-01 11:55:00,
2013-04-01 08:00:00,42.3,37.5,29.67,NW,315,6.4,9.2,83,0.00,CLR,,0.00,WeatherDisplay:10.37,2013-04-01 12:00:00,
2013-04-01 08:05:00,42.3,37.5,29.67,WSW,248,4.6,4.6,83,0.00,CLR,,0.00,WeatherDisplay:10.37,2013-04-01 12:05:00,
2013-04-01 08:10:00,42.1,37.3,29.66,West,270,12.3,12.3,83,0.00,CLR,,0.00,WeatherDisplay:10.37,2013-04-01 12:10:00,
2013-04-01 08:15:00,42.1,37.3,29.66,WSW,248,12.9,19.6,83,0.00,CLR,,0.00,WeatherDisplay:10.37,2013-04-01 12:15:00,
2013-04-01 08:20:00,42.1,37.3,29.66,West,270,8.7,10.4,83,0.00,CLR,,0.00,WeatherDisplay:10.37,2013-04-01 12:20:00,
2013-04-01 08:25:00,42.1,37.3,29.66,West,270,13.6,13.8,83,0.00,CLR,,0.00,WeatherDisplay:10.37,2013-04-01 12:25:00,
2013-04-01 08:31:00,42.1,37.3,29.66,WSW,248,10.8,10.8,83,0.00,CLR,,0.00,WeatherDisplay:10.37,2013-04-01 12:31:00,
2013-04-01 08:36:00,41.5,36.8,29.66,WSW,248,15.4,18.4,83,0.01,RA,,0.01,WeatherDisplay:10.37,2013-04-01 12:36:00,
2013-04-01 08:41:00,40.8,37.0,29.66,NNW,338,6.1,17.3,86,0.01,RA,,0.01,WeatherDisplay:10.37,2013-04-01 12:41:00,
2013-04-01 08:46:00,40.3,37.0,29.66,WSW,248,7.3,8.1,88,0.02,RA,,0.02,WeatherDisplay:10.37,2013-04-01 12:46:00,
2013-04-01 08:51:00,39.9,36.9,29.66,NW,315,3.1,8.1,89,0.02,RA,,0.02,WeatherDisplay:10.37,2013-04-01 12:51:00,
2013-04-01 08:57:00,39.7,37.0,29.65,NNW,338,7.8,8.1,90,0.02,CLR,,0.02,WeatherDisplay:10.37,2013-04-01 12:57:00,
2013-04-01 09:02:00,39.6,36.3,29.65,WNW,292,11.1,11.1,88,0.02,CLR,,0.02,WeatherDisplay:10.37,2013-04-01 13:02:00,
2013-04-01 09:07:00,39.2,35.1,29.65,NW,315,6.4,11.5,85,0.02,CLR,,0.02,WeatherDisplay:10.37,2013-04-01 13:07:00,
2013-04-01 09:12:00,39.0,34.3,29.65,North,0,4.9,17.3,83,0.02,CLR,,0.02,WeatherDisplay:10.37,2013-04-01 13:12:00,
2013-04-01 09:17:00,39.0,34.0,29.65,NW,315,5.8,13.8,82,0.02,CLR,,0.02,WeatherDisplay:10.37,2013-04-01 13:17:00,
2013-04-01 09:23:00,39.2,34.2,29.65,NNW,338,6.1,12.7,82,0.02,CLR,,0.02,WeatherDisplay:10.37,2013-04-01 13:23:00,
2013-04-01 09:28:00,39.2,33.9,29.65,North,0,9.9,12.7,81,0.02,CLR,,0.02,WeatherDisplay:10.37,2013-04-01 13:28:00,
2013-04-01 09:33:00,39.2,33.2,29.65,West,270,7.0,11.5,79,0.02,CLR,,0.02,WeatherDisplay:10.37,2013-04-01 13:33:00,
2013-04-01 09:38:00,39.2,33.2,29.65,NNW,338,10.2,15.0,79,0.01,CLR,,0.02,WeatherDisplay:10.37,2013-04-01 13:38:00,
2013-04-01 09:43:00,39.0,33.1,29.66,NNW,338,9.3,9.3,79,0.00,CLR,,0.02,WeatherDisplay:10.37,2013-04-01 13:43:00,
2013-04-01 09:48:00,39.2,32.9,29.66,WSW,248,6.4,12.7,78,0.00,CLR,,0.02,WeatherDisplay:10.37,2013-04-01 13:48:00,
2013-04-01 09:53:00,39.0,32.1,29.66,WNW,292,4.3,15.0,76,0.00,CLR,,0.02,WeatherDisplay:10.37,2013-04-01 13:53:00,
2013-04-01 09:58:00,38.7,31.4,29.67,NW,315,14.2,14.2,75,0.00,CLR,,0.02,WeatherDisplay:10.37,2013-04-01 13:58:00,
2013-04-01 10:03:00,37.9,30.7,29.68,WNW,292,13.0,16.1,75,0.00,CLR,,0.02,WeatherDisplay:10.37,2013-04-01 14:03:00,
2013-04-01 10:09:00,37.8,30.5,29.69,WNW,292,9.6,13.8,75,0.00,CLR,,0.02,WeatherDisplay:10.37,2013-04-01 14:09:00,
2013-04-01 10:14:00,37.9,30.1,29.69,WSW,248,7.0,10.4,73,0.00,CLR,,0.02,WeatherDisplay:10.37,2013-04-01 14:14:00,
2013-04-01 10:19:00,38.1,30.2,29.69,NNW,338,14.8,14.8,73,0.00,CLR,,0.02,WeatherDisplay:10.37,2013-04-01 14:19:00,
2013-04-01 10:24:00,37.9,30.1,29.70,NW,315,8.1,19.6,73,0.00,CLR,,0.02,WeatherDisplay:10.37,2013-04-01 14:24:00,
2013-04-01 10:29:00,37.9,31.0,29.70,NW,315,15.4,15.4,76,0.00,CLR,,0.02,WeatherDisplay:10.37,2013-04-01 14:29:00,
2013-04-01 10:34:00,37.4,30.8,29.71,NNW,338,14.5,15.0,77,0.00,CLR,,0.02,WeatherDisplay:10.37,2013-04-01 14:34:00,
2013-04-01 10:39:00,36.9,30.0,29.71,NW,315,9.0,9.2,76,0.00,CLR,,0.02,WeatherDisplay:10.37,2013-04-01 14:39:00,
2013-04-01 10:44:00,36.3,30.1,29.71,NNW,338,13.6,13.8,78,0.00,CLR,,0.02,WeatherDisplay:10.37,2013-04-01 14:44:00,
2013-04-01 10:49:00,36.0,30.1,29.72,NW,315,8.4,12.7,79,0.00,CLR,,0.02,WeatherDisplay:10.37,2013-04-01 14:49:00,
2013-04-01 10:54:00,36.0,30.1,29.71,West,270,9.0,9.2,79,0.00,CLR,,0.02,WeatherDisplay:10.37,2013-04-01 14:54:00,
2013-04-01 10:59:00,36.1,30.3,29.72,NW,315,13.3,13.8,79,0.00,CLR,,0.02,WeatherDisplay:10.37,2013-04-01 14:59:00,
2013-04-01 11:04:00,36.3,30.4,29.73,West,270,9.0,9.2,79,0.00,CLR,,0.02,WeatherDisplay:10.37,2013-04-01 15:04:00,
2013-04-01 11:09:00,36.3,30.4,29.73,WNW,292,7.0,8.1,79,0.00,CLR,,0.02,WeatherDisplay:10.37,2013-04-01 15:09:00,
2013-04-01 11:14:00,36.0,30.1,29.74,NW,315,10.8,10.8,79,0.00,CLR,,0.02,WeatherDisplay:10.37,2013-04-01 15:14:00,
2013-04-01 11:19:00,36.0,30.4,29.74,West,270,4.9,6.9,80,0.00,CLR,,0.02,WeatherDisplay:10.37,2013-04-01 15:19:00,
2013-04-01 11:24:00,36.3,30.1,29.73,NW,315,9.3,9.3,78,0.00,CLR,,0.02,WeatherDisplay:10.37,2013-04-01 15:24:00,
2013-04-01 11:29:00,36.3,29.8,29.74,NNW,338,12.3,12.7,77,0.00,CLR,,0.02,WeatherDisplay:10.37,2013-04-01 15:29:00,
2013-04-01 11:34:00,36.1,30.6,29.74,WNW,292,5.2,6.9,80,0.00,CLR,,0.02,WeatherDisplay:10.37,2013-04-01 15:34:00,
2013-04-01 11:39:00,35.8,29.9,29.74,NNW,338,8.1,11.5,79,0.00,CLR,,0.02,WeatherDisplay:10.37,2013-04-01 15:39:00,
2013-04-01 11:44:00,36.1,30.6,29.74,NW,315,7.0,9.2,80,0.00,CLR,,0.02,WeatherDisplay:10.37,2013-04-01 15:44:00,
2013-04-01 11:49:00,36.3,31.0,29.74,WNW,292,11.4,11.5,81,0.00,CLR,,0.02,WeatherDisplay:10.37,2013-04-01 15:49:00,
2013-04-01 11:55:00,36.5,30.3,29.74,WSW,248,6.1,8.1,78,0.00,CLR,,0.02,WeatherDisplay:10.37,2013-04-01 15:55:00,
2013-04-01 12:00:00,36.7,29.8,29.74,NW,315,13.3,13.8,76,0.00,CLR,,0.02,WeatherDisplay:10.37,2013-04-01 16:00:00,
2013-04-01 12:05:00,36.5,30.0,29.74,North,0,4.9,9.2,77,0.00,CLR,,0.02,WeatherDisplay:10.37,2013-04-01 16:05:00,
2013-04-01 12:10:00,36.7,30.1,29.74,NNW,338,7.8,10.4,77,0.00,CLR,,0.02,WeatherDisplay:10.37,2013-04-01 16:10:00,
2013-04-01 12:15:00,36.5,30.0,29.75,West,270,8.1,9.2,77,0.00,CLR,,0.02,WeatherDisplay:10.37,2013-04-01 16:15:00,
2013-04-01 12:20:00,36.1,29.0,29.75,WSW,248,10.2,10.2,75,0.00,CLR,,0.02,WeatherDisplay:10.37,2013-04-01 16:20:00,
2013-04-01 12:25:00,36.0,29.8,29.75,WSW,248,12.0,12.0,78,0.00,CLR,,0.02,WeatherDisplay:10.37,2013-04-01 16:25:00,
2013-04-01 12:30:00,35.6,30.3,29.75,NW,315,8.7,13.8,81,0.00,CLR,,0.02,WeatherDisplay:10.37,2013-04-01 16:30:00,
2013-04-01 12:35:00,35.2,30.9,29.75,WSW,248,13.0,13.0,84,0.00,CLR,,0.02,WeatherDisplay:10.37,2013-04-01 16:35:00,
2013-04-01 12:40:00,34.9,30.5,29.75,WNW,292,7.0,7.0,84,0.00,CLR,,0.02,WeatherDisplay:10.37,2013-04-01 16:40:00,
2013-04-01 12:45:00,34.7,30.7,29.75,WSW,248,5.2,5.8,85,0.00,CLR,,0.02,WeatherDisplay:10.37,2013-04-01 16:45:00,
2013-04-01 12:50:00,33.8,30.1,29.75,NNW,338,4.6,8.1,86,0.00,CLR,,0.02,WeatherDisplay:10.37,2013-04-01 16:50:00,
2013-04-01 12:55:00,33.4,30.3,29.76,WSW,248,3.1,6.9,88,0.00,CLR,,0.02,WeatherDisplay:10.37,2013-04-01 16:55:00,
2013-04-01 13:00:00,32.2,29.0,29.76,NNW,338,7.6,13.8,88,0.00,CLR,,0.02,WeatherDisplay:10.37,2013-04-01 17:00:00,
2013-04-01 13:05:00,31.3,28.4,29.77,West,270,15.4,16.1,89,0.00,CLR,,0.02,WeatherDisplay:10.37,2013-04-01 17:05:00,
2013-04-01 13:10:00,30.7,27.9,29.77,NW,315,6.7,21.9,89,0.00,CLR,,0.02,WeatherDisplay:10.37,2013-04-01 17:10:00,
2013-04-01 13:16:00,30.7,27.9,29.77,NW,315,12.3,12.3,89,0.00,CLR,,0.02,WeatherDisplay:10.37,2013-04-01 17:16:00,
2013-04-01 13:21:00,30.6,27.7,29.77,NNW,338,8.4,10.4,89,0.00,CLR,,0.02,WeatherDisplay:10.37,2013-04-01 17:21:00,
2013-04-01 13:26:00,30.6,27.7,29.77,WNW,292,4.3,5.8,89,0.00,CLR,,0.02,WeatherDisplay:10.37,2013-04-01 17:26:00,
2013-04-01 13:31:00,30.6,28.0,29.77,NNW,338,4.9,15.0,90,0.00,CLR,,0.02,WeatherDisplay:10.37,2013-04-01 17:31:00,
2013-04-01 13:36:00,30.6,28.0,29.77,NW,315,7.3,7.3,90,0.00,CLR,,0.02,WeatherDisplay:10.37,2013-04-01 17:36:00,
2013-04-01 13:41:00,30.6,28.0,29.78,WSW,248,9.3,9.3,90,0.00,CLR,,0.02,WeatherDisplay:10.37,2013-04-01 17:41:00,
2013-04-01 13:46:00,30.7,27.9,29.78,NNW,338,9.9,10.4,89,0.00,CLR,,0.02,WeatherDisplay:10.37,2013-04-01 17:46:00,
2013-04-01 13:52:00,30.9,28.1,29.78,NNW,338,6.4,13.8,89,0.00,CLR,,0.02,WeatherDisplay:10.37,2013-04-01 17:52:00,
2013-04-01 13:57:00,31.3,28.4,29.78,NW,315,8.7,9.2,89,0.00,CLR,,0.02,WeatherDisplay:10.37,2013-04-01 17:57:00,
2013-04-01 14:02:00,31.5,28.0,29.78,NNW,338,9.6,9.6,87,0.00,CLR,,0.02,WeatherDisplay:10.37,2013-04-01 18:02:00,
2013-04-01 14:08:00,31.6,27.9,29.78,West,270,12.9,12.9,86,0.00,CLR,,0.02,WeatherDisplay:10.37,2013-04-01 18:08:00,
2013-04-01 14:13:00,31.8,27.8,29.78,NNW,338,9.3,11.5,85,0.00,CLR,,0.02,WeatherDisplay:10.37,2013-04-01 18:13:00,
2013-04-01 14:18:00,32.0,27.7,29.78,North,0,8.4,11.5,84,0.00,CLR,,0.02,WeatherDisplay:10.37,2013-04-01 18:18:00,
2013-04-01 14:23:00,32.7,29.0,29.78,NNW,338,2.8,5.8,86,0.00,CLR,,0.02,WeatherDisplay:10.37,2013-04-01 18:23:00,
2013-04-01 14:28:00,33.4,29.7,29.78,West,270,6.1,10.4,86,0.00,CLR,,0.02,WeatherDisplay:10.37,2013-04-01 18:28:00,
2013-04-01 14:33:00,34.0,29.9,29.78,NW,315,6.1,6.1,85,0.00,CLR,,0.02,WeatherDisplay:10.37,2013-04-01 18:33:00,
2013-04-01 14:38:00,34.0,29.1,29.78,NW,315,7.0,7.0,82,0.00,CLR,,0.02,WeatherDisplay:10.37,2013-04-01 18:38:00,
2013-04-01 14:43:00,34.0,29.1,29.78,WNW,292,4.0,6.9,82,0.00,CLR,,0.02,WeatherDisplay:10.37,2013-04-01 18:43:00,
2013-04-01 14:48:00,34.0,28.5,29.78,WNW,292,7.3,11.5,80,0.00,CLR,,0.02,WeatherDisplay:10.37,2013-04-01 18:48:00,
2013-04-01 14:53:00,34.2,27.4,29.77,West,270,6.4,8.1,76,0.01,RA,,0.03,WeatherDisplay:10.37,2013-04-01 18:53:00,
2013-04-01 14:58:00,35.1,28.3,29.77,WNW,292,14.5,15.0,76,0.01,RA,,0.03,WeatherDisplay:10.37,2013-04-01 18:58:00,
2013-04-01 15:03:00,35.6,28.5,29.77,NW,315,6.4,10.4,75,0.01,CLR,,0.03,WeatherDisplay:10.37,2013-04-01 19:03:00,
2013-04-01 15:08:00,36.5,29.3,29.77,NW,315,7.6,8.1,75,0.01,CLR,,0.03,WeatherDisplay:10.37,2013-04-01 19:08:00,
2013-04-01 15:13:00,36.3,27.8,29.77,West,270,12.9,13.8,71,0.01,CLR,,0.03,WeatherDisplay:10.37,2013-04-01 19:13:00,
2013-04-01 15:18:00,36.1,27.6,29.77,North,0,4.3,11.5,71,0.01,CLR,,0.03,WeatherDisplay:10.37,2013-04-01 19:18:00,
2013-04-01 15:23:00,36.3,27.1,29.77,NNW,338,8.1,13.8,69,0.01,CLR,,0.03,WeatherDisplay:10.37,2013-04-01 19:23:00,
2013-04-01 15:28:00,36.0,26.8,29.78,NNW,338,6.4,10.4,69,0.01,CLR,,0.03,WeatherDisplay:10.37,2013-04-01 19:28:00,
2013-04-01 15:33:00,36.0,26.1,29.78,WSW,248,15.1,15.1,67,0.01,CLR,,0.03,WeatherDisplay:10.37,2013-04-01 19:33:00,
2013-04-01 15:38:00,36.0,25.7,29.78,WNW,292,15.7,16.1,66,0.01,CLR,,0.03,WeatherDisplay:10.37,2013-04-01 19:38:00,
2013-04-01 15:43:00,35.8,25.5,29.78,NNW,338,11.1,11.5,66,0.01,CLR,,0.03,WeatherDisplay:10.37,2013-04-01 19:43:00,
2013-04-01 15:48:00,36.7,26.4,29.77,WSW,248,11.1,11.5,66,0.01,CLR,,0.03,WeatherDisplay:10.37,2013-04-01 19:48:00,
2013-04-01 15:53:00,37.6,26.1,29.77,NE,45,11.7,11.7,63,0.00,CLR,,0.03,WeatherDisplay:10.37,2013-04-01 19:53:00,
2013-04-01 15:58:00,38.1,25.0,29.77,WNW,292,11.1,11.5,59,0.00,CLR,,0.03,WeatherDisplay:10.37,2013-04-01 19:58:00,
2013-04-01 16:03:00,38.5,25.4,29.77,West,270,14.8,15.0,59,0.00,CLR,,0.03,WeatherDisplay:10.37,2013-04-01 20:03:00,
2013-04-01 16:08:00,38.8,26.5,29.78,West,270,6.1,11.5,61,0.00,CLR,,0.03,WeatherDisplay:10.37,2013-04-01 20:08:00,
2013-04-01 16:13:00,39.2,23.0,29.78,NW,315,11.7,12.7,52,0.00,CLR,,0.03,WeatherDisplay:10.37,2013-04-01 20:13:00,
2013-04-01 16:18:00,39.7,25.3,29.78,NNW,338,12.3,12.3,56,0.00,CLR,,0.03,WeatherDisplay:10.37,2013-04-01 20:18:00,
2013-04-01 16:23:00,39.6,25.1,29.78,NNW,338,11.4,16.1,56,0.00,CLR,,0.03,WeatherDisplay:10.37,2013-04-01 20:23:00,
2013-04-01 16:28:00,38.5,23.3,29.78,NNW,338,7.3,7.3,54,0.00,CLR,,0.03,WeatherDisplay:10.37,2013-04-01 20:28:00,
2013-04-01 16:34:00,37.4,22.7,29.78,NNW,338,7.0,9.2,55,0.00,CLR,,0.03,WeatherDisplay:10.37,2013-04-01 20:34:00,
2013-04-01 16:39:00,37.0,21.0,29.78,West,270,10.8,16.1,52,0.00,CLR,,0.03,WeatherDisplay:10.37,2013-04-01 20:39:00,
2013-04-01 16:44:00,37.4,21.8,29.79,NNW,338,9.0,9.2,53,0.00,CLR,,0.03,WeatherDisplay:10.37,2013-04-01 20:44:00,
2013-04-01 16:49:00,37.0,20.6,29.79,NNW,338,8.1,11.5,51,0.00,CLR,,0.03,WeatherDisplay:10.37,2013-04-01 20:49:00,
2013-04-01 16:54:00,36.3,19.4,29.79,NNW,338,4.0,17.3,50,0.00,CLR,,0.03,WeatherDisplay:10.37,2013-04-01 20:54:00,
2013-04-01 16:59:00,36.5,20.1,29.79,NW,315,13.3,16.1,51,0.00,CLR,,0.03,WeatherDisplay:10.37,2013-04-01 20:59:00,
2013-04-01 17:04:00,38.1,19.6,29.78,NW,315,10.2,16.1,47,0.00,CLR,,0.03,WeatherDisplay:10.37,2013-04-01 21:04:00,
2013-04-01 17:09:00,39.0,19.4,29.78,West,270,11.4,11.4,45,0.01,RA,,0.04,WeatherDisplay:10.37,2013-04-01 21:09:00,
2013-04-01 17:14:00,39.9,20.8,29.78,NNW,338,12.9,18.4,46,0.01,RA,,0.04,WeatherDisplay:10.37,2013-04-01 21:14:00,
2013-04-01 17:19:00,39.7,19.6,29.78,NW,315,12.0,18.4,44,0.01,CLR,,0.04,WeatherDisplay:10.37,2013-04-01 21:19:00,
2013-04-01 17:24:00,39.2,19.6,29.79,NW,315,9.3,12.7,45,0.01,CLR,,0.04,WeatherDisplay:10.37,2013-04-01 21:24:00,
2013-04-01 17:29:00,39.2,19.6,29.79,NW,315,8.4,11.5,45,0.01,CLR,,0.04,WeatherDisplay:10.37,2013-04-01 21:29:00,
2013-04-01 17:34:00,38.5,19.0,29.79,West,270,8.4,15.0,45,0.01,CLR,,0.04,WeatherDisplay:10.37,2013-04-01 21:34:00,
2013-04-01 17:39:00,37.4,19.5,29.79,NW,315,8.4,8.4,48,0.01,CLR,,0.04,WeatherDisplay:10.37,2013-04-01 21:39:00,
2013-04-01 17:44:00,37.0,19.1,29.79,West,270,8.1,8.1,48,0.01,CLR,,0.04,WeatherDisplay:10.37,2013-04-01 21:44:00,
2013-04-01 17:49:00,36.9,18.5,29.79,West,270,9.6,9.6,47,0.01,CLR,,0.04,WeatherDisplay:10.37,2013-04-01 21:49:00,
2013-04-01 17:54:00,37.6,19.1,29.80,NW,315,13.6,13.8,47,0.01,CLR,,0.04,WeatherDisplay:10.37,2013-04-01 21:54:00,
2013-04-01 17:59:00,36.9,18.5,29.80,NW,315,8.7,9.2,47,0.01,CLR,,0.04,WeatherDisplay:10.37,2013-04-01 21:59:00,
2013-04-01 18:04:00,36.1,18.8,29.80,NNW,338,2.1,6.9,49,0.01,CLR,,0.04,WeatherDisplay:10.37,2013-04-01 22:04:00,
2013-04-01 18:09:00,36.1,17.8,29.80,NNW,338,12.6,12.7,47,0.00,CLR,,0.04,WeatherDisplay:10.37,2013-04-01 22:09:00,
2013-04-01 18:14:00,36.7,18.8,29.80,NW,315,8.1,9.2,48,0.00,CLR,,0.04,WeatherDisplay:10.37,2013-04-01 22:14:00,
2013-04-01 18:19:00,36.3,17.5,29.81,North,0,6.4,19.6,46,0.00,CLR,,0.04,WeatherDisplay:10.37,2013-04-01 22:19:00,
2013-04-01 18:24:00,36.3,17.0,29.81,NW,315,13.9,13.9,45,0.00,CLR,,0.04,WeatherDisplay:10.37,2013-04-01 22:24:00,
2013-04-01 18:29:00,36.5,17.7,29.81,NNW,338,12.3,12.3,46,0.00,CLR,,0.04,WeatherDisplay:10.37,2013-04-01 22:29:00,
2013-04-01 18:34:00,36.7,17.3,29.81,NNE,22,8.7,9.2,45,0.00,CLR,,0.04,WeatherDisplay:10.37,2013-04-01 22:34:00,
2013-04-01 18:39:00,36.1,16.8,29.81,NW,315,12.0,12.0,45,0.00,CLR,,0.04,WeatherDisplay:10.37,2013-04-01 22:39:00,
2013-04-01 18:44:00,35.8,17.0,29.81,NW,315,5.2,5.8,46,0.00,CLR,,0.04,WeatherDisplay:10.37,2013-04-01 22:44:00,
2013-04-01 18:49:00,35.4,16.2,29.81,NW,315,6.7,6.9,45,0.00,CLR,,0.04,WeatherDisplay:10.37,2013-04-01 22:49:00,
2013-04-01 18:55:00,35.2,16.5,29.81,NW,315,9.9,10.4,46,0.00,CLR,,0.04,WeatherDisplay:10.37,2013-04-01 22:55:00,
2013-04-01 19:00:00,34.9,15.7,29.81,North,0,15.7,15.7,45,0.00,CLR,,0.04,WeatherDisplay:10.37,2013-04-01 23:00:00,
2013-04-01 19:05:00,34.7,16.0,29.81,WNW,292,15.7,16.1,46,0.00,CLR,,0.04,WeatherDisplay:10.37,2013-04-01 23:05:00,
2013-04-01 19:10:00,34.3,16.2,29.81,NNW,338,5.2,8.1,47,0.00,CLR,,0.04,WeatherDisplay:10.37,2013-04-01 23:10:00,
2013-04-01 19:15:00,34.2,16.0,29.82,North,0,4.6,4.6,47,0.00,CLR,,0.04,WeatherDisplay:10.37,2013-04-01 23:15:00,
2013-04-01 19:20:00,34.0,16.3,29.82,NW,315,6.4,9.2,48,0.00,CLR,,0.04,WeatherDisplay:10.37,2013-04-01 23:20:00,
2013-04-01 19:25:00,33.8,16.2,29.82,NW,315,7.6,10.4,48,0.00,CLR,,0.04,WeatherDisplay:10.37,2013-04-01 23:25:00,
2013-04-01 19:30:00,33.6,15.5,29.82,NW,315,16.0,16.0,47,0.00,CLR,,0.04,WeatherDisplay:10.37,2013-04-01 23:30:00,
2013-04-01 19:35:00,33.4,15.8,29.82,NW,315,7.0,10.4,48,0.00,CLR,,0.04,WeatherDisplay:10.37,2013-04-01 23:35:00,
2013-04-01 19:40:00,33.4,16.3,29.82,WNW,292,4.3,5.8,49,0.00,CLR,,0.04,WeatherDisplay:10.37,2013-04-01 23:40:00,
2013-04-01 19:45:00,33.3,15.7,29.82,NNW,338,7.6,8.1,48,0.00,CLR,,0.04,WeatherDisplay:10.37,2013-04-01 23:45:00,
2013-04-01 19:50:00,33.1,15.5,29.82,NW,315,7.3,17.3,48,0.00,CLR,,0.04,WeatherDisplay:10.37,2013-04-01 23:50:00,
2013-04-01 19:55:00,33.1,16.0,29.82,NW,315,5.5,6.9,49,0.00,CLR,,0.04,WeatherDisplay:10.37,2013-04-01 23:55:00,
2013-04-01 20:00:00,32.9,15.3,29.83,WNW,292,10.5,11.5,48,0.00,CLR,,0.04,WeatherDisplay:10.37,2013-04-02 00:00:00,
2013-04-01 20:05:00,32.7,15.2,29.83,West,270,4.0,8.1,48,0.00,CLR,,0.04,WeatherDisplay:10.37,2013-04-02 00:05:00,
2013-04-01 20:11:00,32.7,14.7,29.83,WNW,292,11.1,12.7,47,0.00,CLR,,0.04,WeatherDisplay:10.37,2013-04-02 00:11:00,
2013-04-01 20:16:00,32.5,15.0,29.83,North,0,6.7,10.4,48,0.00,CLR,,0.04,WeatherDisplay:10.37,2013-04-02 00:16:00,
2013-04-01 20:21:00,32.4,14.4,29.83,NW,315,8.1,8.1,47,0.00,CLR,,0.04,WeatherDisplay:10.37,2013-04-02 00:21:00,
2013-04-01 20:27:00,32.2,14.7,29.84,NW,315,7.6,8.1,48,0.00,CLR,,0.04,WeatherDisplay:10.37,2013-04-02 00:27:00,
2013-04-01 20:33:00,32.0,15.0,29.84,NW,315,6.1,9.2,49,0.00,CLR,,0.04,WeatherDisplay:10.37,2013-04-02 00:33:00,
2013-04-01 20:38:00,32.0,15.0,29.84,NNW,338,8.7,9.2,49,0.00,CLR,,0.04,WeatherDisplay:10.37,2013-04-02 00:38:00,
2013-04-01 20:43:00,31.8,14.8,29.84,NW,315,5.2,5.8,49,0.00,CLR,,0.04,WeatherDisplay:10.37,2013-04-02 00:43:00,
2013-04-01 20:48:00,31.6,14.6,29.84,West,270,4.3,4.6,49,0.00,CLR,,0.04,WeatherDisplay:10.37,2013-04-02 00:48:00,
2013-04-01 20:54:00,31.6,14.6,29.84,NNW,338,9.3,9.3,49,0.00,CLR,,0.04,WeatherDisplay:10.37,2013-04-02 00:54:00,
2013-04-01 20:59:00,31.5,14.5,29.84,NNW,338,2.1,4.6,49,0.00,CLR,,0.04,WeatherDisplay:10.37,2013-04-02 00:59:00,
2013-04-01 21:04:00,31.3,14.3,29.84,NNW,338,6.4,6.4,49,0.00,CLR,,0.04,WeatherDisplay:10.37,2013-04-02 01:04:00,
2013-04-01 21:09:00,31.3,13.8,29.84,NNW,338,7.3,7.3,48,0.00,CLR,,0.04,WeatherDisplay:10.37,2013-04-02 01:09:00,
2013-04-01 21:14:00,31.3,14.3,29.84,NW,315,5.2,5.8,49,0.00,CLR,,0.04,WeatherDisplay:10.37,2013-04-02 01:14:00,
2013-04-01 21:19:00,31.1,14.1,29.85,NW,315,3.1,6.9,49,0.00,CLR,,0.04,WeatherDisplay:10.37,2013-04-02 01:19:00,
2013-04-01 21:24:00,31.1,14.1,29.85,NNW,338,3.4,4.6,49,0.00,CLR,,0.04,WeatherDisplay:10.37,2013-04-02 01:24:00,
2013-04-01 21:29:00,30.9,14.4,29.85,NW,315,3.1,5.8,50,0.00,CLR,,0.04,WeatherDisplay:10.37,2013-04-02 01:29:00,
2013-04-01 21:34:00,30.7,14.3,29.85,NW,315,2.4,4.6,50,0.00,CLR,,0.04,WeatherDisplay:10.37,2013-04-02 01:34:00,
2013-04-01 21:39:00,30.7,14.3,29.85,NNW,338,4.3,4.6,50,0.00,CLR,,0.04,WeatherDisplay:10.37,2013-04-02 01:39:00,
2013-04-01 21:44:00,30.6,14.1,29.85,NW,315,7.3,9.2,50,0.00,CLR,,0.04,WeatherDisplay:10.37,2013-04-02 01:44:00,
2013-04-01 21:49:00,30.6,14.1,29.85,NW,315,6.1,6.1,50,0.00,CLR,,0.04,WeatherDisplay:10.37,2013-04-02 01:49:00,
2013-04-01 21:55:00,30.6,14.1,29.86,NNW,338,3.4,5.8,50,0.00,CLR,,0.04,WeatherDisplay:10.37,2013-04-02 01:55:00,
2013-04-01 22:00:00,30.6,14.1,29.86,WNW,292,4.0,5.8,50,0.00,CLR,,0.04,WeatherDisplay:10.37,2013-04-02 02:00:00,
2013-04-01 22:05:00,30.4,14.4,29.86,NW,315,3.1,3.5,51,0.00,CLR,,0.04,WeatherDisplay:10.37,2013-04-02 02:05:00,
2013-04-01 22:10:00,30.4,14.4,29.86,North,0,1.5,6.9,51,0.00,CLR,,0.04,WeatherDisplay:10.37,2013-04-02 02:10:00,
2013-04-01 22:15:00,30.2,14.2,29.87,NW,315,2.1,4.6,51,0.00,CLR,,0.04,WeatherDisplay:10.37,2013-04-02 02:15:00,
2013-04-01 22:20:00,30.0,14.5,29.87,NNW,338,7.0,7.0,52,0.00,CLR,,0.04,WeatherDisplay:10.37,2013-04-02 02:20:00,
2013-04-01 22:25:00,30.0,14.5,29.87,NNW,338,1.8,2.3,52,0.00,CLR,,0.04,WeatherDisplay:10.37,2013-04-02 02:25:00,
2013-04-01 22:30:00,29.8,14.3,29.87,WNW,292,5.5,5.8,52,0.00,CLR,,0.04,WeatherDisplay:10.37,2013-04-02 02:30:00,
2013-04-01 22:35:00,29.8,14.3,29.87,WNW,292,2.4,2.4,52,0.00,CLR,,0.04,WeatherDisplay:10.37,2013-04-02 02:35:00,
2013-04-01 22:40:00,29.5,14.4,29.87,North,0,1.5,1.5,53,0.00,CLR,,0.04,WeatherDisplay:10.37,2013-04-02 02:40:00,
2013-04-01 22:45:00,29.3,14.3,29.87,North,0,0.6,3.5,53,0.00,CLR,,0.04,WeatherDisplay:10.37,2013-04-02 02:45:00,
2013-04-01 22:50:00,29.1,14.5,29.87,WNW,292,4.9,4.9,54,0.00,CLR,,0.04,WeatherDisplay:10.37,2013-04-02 02:50:00,
2013-04-01 22:56:00,29.1,14.5,29.87,NW,315,2.5,2.5,54,0.00,CLR,,0.04,WeatherDisplay:10.37,2013-04-02 02:56:00,
2013-04-01 23:02:00,29.1,14.9,29.87,North,0,0.9,1.1,55,0.00,CLR,,0.04,WeatherDisplay:10.37,2013-04-02 03:02:00,
2013-04-01 23:08:00,29.1,14.9,29.87,NW,315,2.5,2.5,55,0.00,CLR,,0.04,WeatherDisplay:10.37,2013-04-02 03:08:00,
2013-04-01 23:13:00,28.9,14.4,29.87,NW,315,1.5,4.6,54,0.00,CLR,,0.04,WeatherDisplay:10.37,2013-04-02 03:13:00,
2013-04-01 23:18:00,29.1,14.9,29.87,NW,315,0.6,1.1,55,0.00,CLR,,0.04,WeatherDisplay:10.37,2013-04-02 03:18:00,
2013-04-01 23:23:00,28.9,14.4,29.87,NW,315,2.5,2.5,54,0.00,CLR,,0.04,WeatherDisplay:10.37,2013-04-02 03:23:00,
2013-04-01 23:28:00,28.9,14.4,29.87,NW,315,1.2,2.3,54,0.00,CLR,,0.04,WeatherDisplay:10.37,2013-04-02 03:28:00,
2013-04-01 23:33:00,28.8,14.6,29.87,WNW,292,0.0,4.6,55,0.00,CLR,,0.04,WeatherDisplay:10.37,2013-04-02 03:33:00,
2013-04-01 23:38:00,28.8,14.6,29.87,NW,315,0.6,2.3,55,0.00,CLR,,0.04,WeatherDisplay:10.37,2013-04-02 03:38:00,
2013-04-01 23:43:00,28.8,14.6,29.87,NW,315,0.3,1.1,55,0.00,CLR,,0.04,WeatherDisplay:10.37,2013-04-02 03:43:00,
2013-04-01 23:48:00,28.6,14.4,29.87,WNW,292,0.6,1.1,55,0.00,CLR,,0.04,WeatherDisplay:10.37,2013-04-02 03:48:00,
2013-04-01 23:54:00,28.4,14.3,29.87,NW,315,1.5,1.5,55,0.00,CLR,,0.04,WeatherDisplay:10.37,2013-04-02 03:54:00,
2013-04-01 23:59:00,28.4,14.7,29.87,NW,315,0.9,1.1,56,0.00,CLR,,0.04,WeatherDisplay:10.37,2013-04-02 03:59:00,